DW2589 Weather Reports


time (UTC)temp
F
wind
direction
speed
knots
gust
knots
rain 1hr
in
rain 24hr
in
rain mn
in
humidity
%
barometer
mb
20260505102147 52 229 1.7 6.1 0.00 0.00 0.00 90 1010.6
20260505101648 52 233 2.6 6.1 0.00 0.00 0.00 90 1010.4
20260505101146 52 233 1.7 6.1 0.00 0.00 0.00 90 1010.5
20260505100650 51 237 2.6 7.8 0.00 0.00 0.00 91 1010.5
20260505100146 51 224 2.6 7.8 0.00 0.00 0.00 91 1010.4
20260505095647 51 194 1.7 5.2 0.00 0.00 0.00 91 1010.4
20260505095146 51 231 1.7 5.2 0.00 0.00 0.00 91 1010.6
20260505094647 51 219 1.7 5.2 0.00 0.00 0.00 91 1010.6
20260505094141 51 250 1.7 5.2 0.00 0.00 0.00 91 1010.6
20260505093642 51 243 1.7 4.3 0.00 0.00 0.00 91 1010.7
20260505093142 51 226 1.7 4.3 0.00 0.00 0.00 91 1010.6
20260505092645 50 235 1.7 4.3 0.00 0.00 0.00 91 1010.6
20260505092141 50 194 1.7 4.3 0.00 0.00 0.00 90 1010.6
20260505091642 51 200 1.7 5.2 0.00 0.00 0.00 90 1010.7
20260505091141 50 127 1.7 5.2 0.00 0.00 0.00 90 1010.8
20260505090643 51 237 2.6 7.8 0.00 0.00 0.00 90 1010.8
20260505090141 51 226 2.6 7.8 0.00 0.00 0.00 90 1010.7
20260505085642 51 230 2.6 5.2 0.00 0.00 0.00 90 1010.7
20260505085139 51 237 1.7 4.3 0.00 0.00 0.00 90 1010.7
20260505084640 51 210 1.7 4.3 0.00 0.00 0.00 89 1010.6
20260505084139 51 212 1.7 7.0 0.00 0.00 0.00 89 1010.7
20260505083640 51 248 1.7 7.0 0.00 0.00 0.00 89 1010.5
20260505083137 51 242 1.7 5.2 0.00 0.00 0.00 89 1010.6
20260505082720 51 227 2.6 5.2 0.00 0.00 0.00 89 1010.6
20260505081638 51 238 1.7 7.0 0.00 0.00 0.00 89 1010.7
20260505081136 51 206 1.7 7.0 0.00 0.00 0.00 89 1010.7
20260505080637 51 196 1.7 6.1 0.00 0.00 0.00 89 1010.8
20260505080134 51 224 1.7 6.1 0.00 0.00 0.00 88 1010.7
20260505075634 51 269 1.7 3.5 0.00 0.00 0.00 88 1010.8
20260505075432 51 204 1.7 4.3 0.00 0.00 0.00 88 1010.7
20260505074633 51 240 1.7 4.3 0.00 0.00 0.00 88 1010.7
20260505074133 51 249 1.7 4.3 0.00 0.00 0.00 88 1010.8
20260505073634 51 231 1.7 5.2 0.00 0.00 0.00 87 1010.9
20260505073134 51 234 1.7 5.2 0.00 0.00 0.00 87 1010.9
20260505072632 51 249 2.6 4.3 0.00 0.00 0.00 87 1010.9
20260505072129 51 261 2.6 7.0 0.00 0.00 0.00 86 1010.9
20260505071928 51 246 2.6 7.0 0.00 0.00 0.00 86 1010.9
20260505071130 51 242 1.7 6.1 0.00 0.00 0.00 86 1010.8
20260505070631 51 238 1.7 4.3 0.00 0.00 0.00 86 1010.9
20260505070426 52 221 1.7 5.2 0.00 0.00 0.00 85 1010.9
20260505065630 52 253 1.7 5.2 0.00 0.00 0.00 85 1010.9
20260505065130 52 251 1.7 4.3 0.00 0.00 0.00 85 1010.9
20260505064628 52 234 1.7 4.3 0.00 0.00 0.00 84 1011.0
20260505064422 52 188 2.6 4.3 0.00 0.00 0.00 84 1011.0
20260505063629 52 233 2.6 5.2 0.00 0.00 0.00 84 1011.0
20260505063423 52 243 2.6 7.0 0.00 0.00 0.00 83 1011.0
20260505062626 52 179 2.6 7.8 0.00 0.00 0.00 83 1010.9
20260505062128 52 188 2.6 7.8 0.00 0.00 0.00 83 1010.9
20260505061626 53 217 2.6 10.4 0.00 0.00 0.00 83 1011.0
20260505061123 53 221 2.6 10.4 0.00 0.00 0.00 83 1011.0
20260505060935 53 229 2.6 8.7 0.00 0.00 0.00 83 1011.1
20260505060124 53 232 1.7 8.7 0.00 0.00 0.00 83 1011.1
20260505055623 53 211 1.7 4.3 0.00 0.00 0.00 83 1011.0
20260505055123 52 226 2.6 5.2 0.00 0.00 0.00 83 1010.9
20260505054921 53 217 2.6 7.8 0.00 0.00 0.00 82 1011.0
20260505054124 53 238 2.6 7.8 0.00 0.00 0.00 82 1011.0
20260505053624 53 242 2.6 6.1 0.00 0.00 0.00 82 1010.9
20260505053124 53 158 2.6 6.1 0.00 0.00 0.00 81 1010.9
20260505052623 53 231 2.6 6.1 0.00 0.00 0.00 81 1010.9
20260505052429 53 224 2.6 7.0 0.00 0.00 0.00 81 1010.9
20260505051623 53 241 2.6 7.0 0.00 0.00 0.00 81 1011.0
20260505051122 53 238 2.6 6.1 0.00 0.00 0.00 80 1011.1
20260505050618 53 160 2.6 7.0 0.00 0.00 0.00 80 1011.0
20260505050113 53 259 2.6 7.0 0.00 0.00 0.00 80 1011.0
20260505041604 53 236 2.6 6.1 0.00 0.00 0.00 79 1011.1
20260505041104 53 209 2.6 7.0 0.00 0.00 0.00 79 1011.1
20260505040603 53 207 2.6 7.8 0.00 0.00 0.00 78 1011.0
20260505040104 53 238 2.6 7.8 0.00 0.00 0.00 78 1011.0
20260505035604 53 264 2.6 9.6 0.00 0.00 0.00 78 1011.0
20260505035105 54 214 2.6 9.6 0.00 0.00 0.00 78 1011.1
20260505034605 54 135 2.6 7.0 0.00 0.00 0.00 77 1011.0
20260505034103 54 221 2.6 7.0 0.00 0.00 0.00 77 1011.0
20260505033903 54 254 2.6 7.0 0.00 0.00 0.00 77 1011.1
20260505033101 54 122 3.5 9.6 0.00 0.00 0.00 76 1011.0
20260505032603 54 224 2.6 9.6 0.00 0.00 0.00 76 1011.0
20260505032102 54 240 2.6 7.8 0.00 0.00 0.00 76 1010.9
20260505031601 54 167 2.6 8.7 0.00 0.00 0.00 76 1011.0
20260505031103 54 225 2.6 10.4 0.00 0.00 0.00 76 1011.1
20260505030601 54 229 2.6 10.4 0.00 0.00 0.00 76 1011.2
20260505030408 54 252 2.6 6.1 0.00 0.00 0.00 76 1011.2
20260505025859 54 229 2.6 6.1 0.00 0.00 0.00 76 1011.2
20260505025356 54 239 3.5 10.4 0.00 0.00 0.00 76 1011.2
20260505024903 54 227 3.5 10.4 0.00 0.00 0.00 76 1011.0
20260505024354 54 174 2.6 7.8 0.00 0.00 0.00 75 1011.0
20260505023602 54 240 2.6 6.1 0.00 0.00 0.00 75 1011.1
20260505023102 54 241 2.6 7.0 0.00 0.00 0.00 75 1011.2
20260505022601 55 143 2.6 8.7 0.00 0.00 0.00 75 1011.1
20260505022101 55 114 2.6 8.7 0.00 0.00 0.00 75 1011.2
20260505021603 55 220 3.5 9.6 0.00 0.00 0.00 74 1011.3
20260505021103 55 214 2.6 9.6 0.00 0.00 0.00 74 1011.2
20260505020603 55 221 2.6 7.0 0.00 0.00 0.00 74 1011.2
20260505015912 55 208 2.6 7.8 0.00 0.00 0.00 73 1011.2
20260505015104 55 198 2.6 7.8 0.00 0.00 0.00 72 1011.2
20260505014606 56 264 2.6 6.1 0.00 0.00 0.00 72 1011.1
20260505014106 56 229 2.6 7.0 0.00 0.00 0.00 72 1011.1
20260505013605 56 224 2.6 9.6 0.00 0.00 0.00 71 1011.0
20260505013104 56 247 3.5 11.3 0.00 0.00 0.00 70 1010.9
20260505012602 56 259 3.5 11.3 0.00 0.00 0.00 70 1010.9
20260505012358 56 229 3.5 8.7 0.00 0.00 0.00 70 1010.7
20260505011604 56 197 3.5 7.0 0.00 0.00 0.00 69 1010.7
20260505011356 56 219 2.6 9.6 0.00 0.00 0.00 69 1010.7
20260505010603 56 223 3.5 11.3 0.00 0.00 0.00 68 1010.6
20260505010103 56 248 3.5 11.3 0.00 0.00 0.00 68 1010.5
20260505005915 57 236 3.5 7.8 0.00 0.00 0.00 67 1010.4
20260505005102 57 230 3.5 8.7 0.00 0.00 0.00 66 1010.3
20260505004602 57 85 3.5 8.7 0.00 0.00 0.00 65 1010.3
20260505004356 57 214 3.5 11.3 0.00 0.00 0.00 64 1010.1
20260505003603 57 222 2.6 11.3 0.00 0.00 0.00 63 1009.9
20260505003102 58 146 3.5 9.6 0.00 0.00 0.00 62 1009.8
20260505002603 58 195 3.5 9.6 0.00 0.00 0.00 61 1009.6
20260505002103 58 154 2.6 9.6 0.00 0.00 0.00 61 1009.5
20260505001605 58 234 2.6 8.7 0.00 0.00 0.00 60 1009.5
20260505001102 58 170 3.5 10.4 0.00 0.00 0.00 60 1009.4
20260505000604 59 212 3.5 10.4 0.00 0.00 0.00 59 1009.4
20260504235603 59 214 3.5 13.9 0.00 0.00 0.00 58 1009.4
20260504235102 60 227 3.5 10.4 0.00 0.00 0.00 57 1009.3
20260504234602 60 238 3.5 10.4 0.00 0.00 0.00 56 1009.2
20260504234102 60 189 3.5 9.6 0.00 0.00 0.00 56 1009.1
20260504233602 60 193 4.3 12.2 0.00 0.00 0.00 55 1009.1
20260504233103 61 234 3.5 12.2 0.00 0.00 0.00 54 1008.9
20260504232604 61 220 2.6 8.7 0.00 0.00 0.00 54 1008.9
20260504232104 62 238 3.5 8.7 0.00 0.00 0.00 53 1008.8
20260504231944 62 238 3.5 7.0 0.00 0.00 0.00 53 1008.7
20260504230856 62 130 4.3 9.6 0.00 0.00 0.00 51 1008.5
20260504230107 63 154 3.5 9.6 0.00 0.00 0.00 51 1008.4
20260504225605 63 170 3.5 13.0 0.00 0.00 0.00 51 1008.3
20260504225108 63 210 3.5 13.0 0.00 0.00 0.00 50 1008.2
20260504224605 64 181 4.3 13.0 0.00 0.00 0.00 50 1008.1
20260504224107 64 250 4.3 13.0 0.00 0.00 0.00 49 1008.1
20260504223604 64 169 4.3 11.3 0.00 0.00 0.00 49 1008.0
20260504223104 65 240 4.3 16.5 0.00 0.00 0.00 49 1008.0
20260504222602 65 98 3.5 16.5 0.00 0.00 0.00 48 1007.7
20260504222102 65 238 3.5 14.8 0.00 0.00 0.00 48 1007.8
20260504221600 65 148 4.3 15.6 0.00 0.00 0.00 48 1007.8
20260504221053 66 229 4.3 15.6 0.00 0.00 0.00 47 1007.7
20260504220552 66 210 5.2 12.2 0.00 0.00 0.00 46 1007.7
20260504220053 66 225 5.2 16.5 0.00 0.00 0.00 46 1007.8
20260504215553 67 136 5.2 16.5 0.00 0.00 0.00 45 1007.7
20260504215348 67 243 5.2 13.0 0.00 0.00 0.00 44 1007.9
20260504214630 67 302 5.2 12.2 0.00 0.00 0.00 45 1007.9
20260504213554 68 196 4.3 11.3 0.00 0.00 0.00 44 1007.9
20260504213051 68 226 3.5 9.6 0.00 0.00 0.00 42 1007.6
20260504212552 68 205 4.3 13.9 0.00 0.00 0.00 43 1007.6
20260504212049 68 185 4.3 13.9 0.00 0.00 0.00 42 1007.5
20260504211549 68 191 4.3 12.2 0.00 0.00 0.00 42 1007.5
20260504211049 68 243 4.3 15.6 0.00 0.00 0.00 42 1007.5
20260504210549 68 160 5.2 15.6 0.00 0.00 0.00 42 1007.6
20260504210047 68 143 5.2 15.6 0.00 0.00 0.00 41 1007.5
20260504205546 69 230 4.3 15.6 0.00 0.00 0.00 41 1007.5
20260504205048 68 233 4.3 11.3 0.00 0.00 0.00 40 1007.5
20260504204544 68 211 4.3 13.9 0.00 0.00 0.00 40 1007.4
20260504204044 69 223 4.3 13.9 0.00 0.00 0.00 40 1007.6
20260504203544 69 129 3.5 9.6 0.00 0.00 0.00 40 1007.6
20260504203045 69 217 4.3 11.3 0.00 0.00 0.00 40 1007.7
20260504202842 69 221 4.3 13.9 0.00 0.00 0.00 40 1007.6
20260504202041 69 294 5.2 13.9 0.00 0.00 0.00 40 1007.5
20260504201542 69 240 4.3 12.2 0.00 0.00 0.00 39 1007.5
20260504201340 70 153 4.3 10.4 0.00 0.00 0.00 38 1007.6
20260504200837 70 184 4.3 15.6 0.00 0.00 0.00 38 1007.5
20260504200041 70 210 4.3 15.6 0.00 0.00 0.00 39 1007.5
20260504195538 71 240 3.5 11.3 0.00 0.00 0.00 37 1007.3
20260504195039 72 136 3.5 9.6 0.00 0.00 0.00 34 1007.4
20260504194539 71 232 3.5 9.6 0.00 0.00 0.00 33 1007.5
20260504194039 72 234 4.3 16.5 0.00 0.00 0.00 33 1007.4
20260504193835 71 184 5.2 16.5 0.00 0.00 0.00 33 1007.5
20260504193036 72 232 4.3 13.0 0.00 0.00 0.00 31 1007.4
20260504192536 72 224 4.3 13.0 0.00 0.00 0.00 32 1007.4
20260504192033 72 219 4.3 10.4 0.00 0.00 0.00 31 1007.5
20260504191533 71 215 4.3 11.3 0.00 0.00 0.00 32 1007.4
20260504191329 71 240 4.3 11.3 0.00 0.00 0.00 32 1007.5
20260504190531 71 102 3.5 10.4 0.00 0.00 0.00 32 1007.5
20260504190029 71 205 3.5 7.8 0.00 0.00 0.00 32 1007.6
20260504185529 72 263 3.5 9.6 0.00 0.00 0.00 31 1007.5
20260504185028 72 231 3.5 12.2 0.00 0.00 0.00 33 1007.6
20260504184528 72 238 3.5 12.2 0.00 0.00 0.00 32 1007.6
20260504184029 71 208 4.3 9.6 0.00 0.00 0.00 32 1007.4
20260504183529 71 137 5.2 16.5 0.00 0.00 0.00 33 1007.8
20260504183029 71 203 4.3 16.5 0.00 0.00 0.00 32 1007.7
20260504182527 71 229 3.5 11.3 0.00 0.00 0.00 32 1007.9
20260504182026 72 232 3.5 8.7 0.00 0.00 0.00 32 1007.9
20260504181524 71 190 3.5 7.8 0.00 0.00 0.00 33 1007.7
20260504181024 72 229 3.5 16.5 0.00 0.00 0.00 33 1007.8
20260504180842 71 223 3.5 16.5 0.00 0.00 0.00 32 1007.8
20260504180022 71 250 3.5 11.3 0.00 0.00 0.00 33 1007.9
20260504175518 71 224 4.3 12.2 0.00 0.00 0.00 32 1007.7
20260504175019 71 136 3.5 12.2 0.00 0.00 0.00 33 1007.9
20260504174552 70 152 3.5 7.0 0.00 0.00 0.00 32 1007.7
20260504173516 70 115 6.1 19.1 0.00 0.00 0.00 32 1007.8
20260504173018 70 250 5.2 15.6 0.00 0.00 0.00 32 1007.6
20260504172518 70 247 4.3 10.4 0.00 0.00 0.00 33 1007.7
20260504172016 70 250 3.5 10.4 0.00 0.00 0.00 33 1007.9
20260504171516 70 143 3.5 7.8 0.00 0.00 0.00 33 1007.7
20260504171014 70 233 4.3 13.9 0.00 0.00 0.00 34 1007.8
20260504170514 70 255 4.3 13.9 0.00 0.00 0.00 33 1007.9
20260504160304 68 32 4.3 12.2 0.00 0.00 0.00 38 1008.8
20260504151006 68 87 3.5 11.3 0.00 0.00 0.00 37 1009.2
20260504150504 68 243 2.6 7.8 0.00 0.00 0.00 37 1009.1
20260504141001 65 224 1.7 5.2 0.00 0.00 0.00 41 1010.0
20260504140504 64 225 1.7 7.0 0.00 0.00 0.00 45 1010.2
20260504130454 60 188 1.7 4.3 0.00 0.00 0.00 47 1010.6
20260504110450 47 232 0.9 2.6 0.00 0.00 0.00 62 1011.2